Location: Launay
(47.2429°N, 1.5727°E)
Time: 20:05:59
(UTC+00:00)

Cosmos 1842 - Pass Details

Date: 19 May 2025
Orbit: 439 x 450 km, 82.5° (Epoch: 22 June)

Event Time Altitude Azimuth Distance (km) Brightness Sun altitude
Exits shadow 23:40:03 49° 307° (NW) 590 3.6 -22.7°
Drops below altitude 10° 23:43:07 10° 0° (N) 1,599 6.8 -22.7°
Sets 23:45:14 0° 5° (N) 2,478 8.1 -22.8°
